Volver al catálogo

STARLINK-6315

ActivoComunicacionesVLEO
NORAD 57236·PAYLOAD·🇺🇸 United States

Lanzado Jul 7, 2023 desde Vandenberg Space Force Base

Loading…

Próximos Pases (próximas 24 horas)

TLE

ActualizadoSource: CelesTrak SupGP

Época: Sep 14, 2026, 21:57 UTC

1 57236C 23094U   26257.91506944  .00015533  00000+0  56256-3 0  2571
2 57236  43.0036  31.3220 0001423 270.7119 273.2710 15.27572229    14

Sigue STARLINK-6315 en tiempo real con AllMySat

Download on the App Store